Location: Budapest
(47.4979°N, 19.0402°E)
Time: 01:36:40
(UTC+01:00)

Envisat - Pass Details

Date: 10 October 2017
Orbit: 764 x 766 km, 98.2° (Epoch: 13 December)

Event Time Altitude Azimuth Distance (km) Brightness Sun altitude
Exits shadow 20:26:52 52° 169° (S) 953 3.2 -24.5°
Maximum altitude 20:28:10 87° 254° (WSW) 774 2.9 -24.7°
Drops below altitude 10° 20:33:18 10° 346° (NNW) 2,316 5.9 -25.5°
Sets 20:35:37 0° 347° (NNW) 3,247 6.7 -25.9°
